{"data":{"norad_id":60332,"intl_designator":"2024-136D","name":"STARLINK-32171","alt_names":[],"object_type":"PAYLOAD","status":"ACTIVE","operator":null,"country":"US","launch_date":"2024-08-02","launch_site_code":"AFETR","launch_vehicle":null,"mission":null,"orbit_class":"UNKNOWN","rcs_meters":null,"size_class":null,"mass_kg":null,"dimensions":null,"purposes":["comms"],"wikipedia_slug":null,"has_3d_model":false,"image_url":null,"decayed_at":null,"tle_current":{"epoch":"2026-09-21T05:44:46.562784Z","epoch_age_seconds":121746,"freshness":"FRESH","line1":"1 60332U 24136D   26264.23942781 -.00002464  00000+0 -67646-4 0  9996","line2":"2 60332  53.1606 245.9841 0001233  76.2291 283.8848 15.31703783119624","mean_motion":15.31703783,"eccentricity":0.0001233,"inclination_deg":53.1606,"raan_deg":245.9841,"arg_perigee_deg":76.2291,"mean_anomaly_deg":283.8848,"bstar":-6.7646e-5,"rev_number":11962,"period_min":94.01295576744,"perigee_km":469.88425317964,"apogee_km":471.57318346578,"semimajor_km":6848.8657183227,"source":"CELESTRAK","updated_at":"2026-09-22T09:00:49.219313Z"}}}